Home > Weather > Passaic > Past weeks

Flag for U.S.A. Weather for the Past 2 Weeks in Passaic, New Jersey, U.S.A.

Now
0 °F

Sunny.


Feels Like: -21 °F
Forecast: 2 / 18 °F
Wind: 17 mph from Northwest

Location: Teterboro Airport

Current Time: Feb 14, 2016 at 8:33:23 AM

Latest Report: Feb 14, 2016 at 7:51 AM


Visibility: 10 mi

Pressure: 30.52 "Hg

Humidity: 40%

Dew point: -19 °F

Location of PassaicLocation

Historic Weather in Passaic — Graph

°F

Passaic Temperature Yesterday

Maximum temperature yesterday: 22 °F (at 12:51 AM)
Minimum temperature yesterday: 6 °F (at 8:51 PM)
Average temperature yesterday: 16 °F

High & Low Weather Summary for the Past Weeks

 TemperatureHumidityPressure
High58 °F (Feb 3, 7:51 PM)94% (Feb 3, 3:58 PM)30.49 "Hg (Feb 3, 3:58 PM)
Low-1 °F (Feb 14, 6:51 AM)24% (Feb 13, 1:51 PM)29.56 "Hg (Feb 9, 2:51 PM)
Average34 °F57%29.99 "Hg
* Reported Jan 30 6:51 AM — Feb 14 6:51 AM, Passaic, Weather by CustomWeather, © 2016

Note: Actual official high and low records may vary slightly from our data, if they occured in-between our weather recording intervals... More about our weather records

Advertising

Passaic Weather History for the Previous 24 Hours

 ConditionsComfort  
Time TempWeatherWind HumidityBarometerVisibility
6:51 AM
Sun, Feb 14
-1 °FClear.22 mph41%30.49 "Hg10 mi
5:51 AM1 °FClear.13 mph38%30.46 "Hg10 mi
4:51 AM2 °FClear.21 mph40%30.41 "Hg10 mi
3:51 AM3 °FClear.18 mph44%30.38 "Hg10 mi
2:51 AM5 °FPassing clouds.18 mph40%30.36 "Hg10 mi
1:51 AM5 °FClear.17 mph36%30.34 "Hg10 mi
12:51 AM6 °FClear.20 mph35%30.33 "Hg10 mi
11:51 PM
Sat, Feb 13
6 °FClear.18 mph35%30.31 "Hg10 mi
10:51 PM6 °FClear.16 mph37%30.31 "Hg10 mi
9:51 PM6 °FClear.17 mph37%30.32 "Hg10 mi
8:51 PM6 °FPassing clouds.16 mph37%30.32 "Hg10 mi
7:51 PM7 °FClear.17 mph33%30.31 "Hg10 mi
6:51 PM9 °FClear.15 mph32%30.29 "Hg10 mi
5:51 PM10 °FClear.20 mph28%30.24 "Hg10 mi
4:51 PM12 °FSunny.22 mph25%30.21 "Hg10 mi
3:51 PM15 °FPassing clouds.18 mph24%30.16 "Hg10 mi
2:51 PM17 °FBroken clouds.18 mph26%30.12 "Hg10 mi
1:51 PM18 °FPartly sunny.22 mph24%30.09 "Hg10 mi
12:51 PM20 °FPartly sunny.23 mph27%30.07 "Hg10 mi
11:51 AM20 °FPartly sunny.16 mph31%30.06 "Hg10 mi
10:51 AM21 °FSunny.20 mphN/A30.04 "Hg10 mi
9:51 AM21 °FMostly cloudy.17 mph31%30.02 "Hg10 mi
8:51 AM22 °FPassing clouds.17 mph40%30.00 "Hg10 mi
Weather by CustomWeather, © 2016

See weather overviewHow to use our weather pages